Home > Time Zones > World Clock > Weather > U.S.A. > Waco > Past weeks

Flag for U.S.A. Weather past 2 weeks in Waco, Texas, U.S.A.

Now
72 °F

Overcast.


Feels Like: 73 °F
Forecast: 71 / 87 °F
Wind: 7 mph from North

Location: Waco Regional Airport

Current Time: Aug 1, 2014 at 7:10:44 AM

Latest Report: Aug 1, 2014 at 5:51 AM


Visibility: 10 mi

Pressure: 29.98 "Hg

Humidity: 78%

Dew point: 65 °F

Location of WacoLocation

Historic Weather in Waco — Graph

°F

Waco temperature yesterday

Maximum temperature yesterday: 90 °F (at 4:51 PM)
Minimum temperature yesterday: 73 °F (at 11:51 PM)
Average temperature yesterday: 81 °F

Past Weeks' High & Low Weather Summary

 TemperatureHumidityPressure
High99 °F (Jul 26, 3:51 PM)100% (Jul 18, 2:02 AM)30.11 "Hg (Jul 18, 2:02 AM)
Low65 °F (Jul 19, 6:51 AM)30% (Jul 29, 6:51 PM)29.81 "Hg (Jul 17, 5:51 PM)
Average82 °F67%29.98 "Hg
* Reported Jul 17 5:51 AM — Aug 1 5:51 AM, Waco, Weather by CustomWeather, © 2014

Note: Actual official high and low records may vary slightly from our data, if they occured in-between our weather recording intervals... More about our weather records

Advertising

Waco weather history for previous 24 hours

 ConditionsComfort  
Time TempWeatherWind HumidityBarometerVisibility
5:51 AM
Aug 1
72 °FOvercast.7 mph78%29.98 "Hg10 mi
4:51 AM72 °FOvercast.10 mph78%29.97 "Hg10 mi
3:51 AM72 °FOvercast.10 mph78%29.98 "Hg10 mi
2:51 AM72 °FOvercast.6 mph78%29.98 "Hg10 mi
1:51 AM73 °FOvercast.9 mph76%29.98 "Hg10 mi
12:51 AM73 °FOvercast.13 mph74%29.98 "Hg10 mi
11:51 PM
Jul 31
73 °FPassing clouds.9 mph74%30.00 "Hg10 mi
10:51 PM75 °FPassing clouds.13 mph71%29.98 "Hg10 mi
9:51 PM75 °FPassing clouds.12 mph71%29.96 "Hg10 mi
8:51 PM77 °FPartly sunny.13 mph66%29.94 "Hg10 mi
7:51 PM79 °FSunny.14 mph60%29.93 "Hg10 mi
6:51 PM82 °FPassing clouds.16 mph55%29.94 "Hg10 mi
5:51 PM85 °FSunny.21 mph53%29.93 "Hg10 mi
4:51 PM90 °FPartly sunny.16 mph47%29.93 "Hg10 mi
3:51 PM87 °FMostly cloudy.13 mph53%29.94 "Hg10 mi
2:51 PM87 °FScattered clouds.14 mph55%29.94 "Hg10 mi
1:51 PM86 °FCloudy.16 mph57%29.95 "Hg10 mi
12:51 PM88 °FPartly sunny.12 mph54%29.96 "Hg10 mi
11:51 AM89 °FPartly sunny.12 mph48%29.95 "Hg10 mi
10:58 AM84 °FScattered clouds.10 mph70%29.98 "Hg10 mi
9:51 AM80 °FMostly cloudy.8 mph79%29.95 "Hg10 mi
8:51 AM80 °FScattered clouds.13 mph76%29.94 "Hg10 mi
7:51 AM79 °FOvercast.10 mph77%29.94 "Hg10 mi
Weather by CustomWeather, © 2014

See weather overviewHow to use our weather pages